timestamp,wind_dir_avg,wind_spd_avg,wind_spd_max_dir,wind_spd_gust,battery_voltage,lat,long
2022-10-28 00:04:00+00:00,215.0,7.75,217.0,8.45,12.41,47.59359,-54.27349
2022-10-28 00:14:00+00:00,212.0,6.75,216.0,7.49,12.41,47.59359,-54.27349
2022-10-28 00:24:00+00:00,209.0,6.82,213.0,7.72,12.41,47.59359,-54.27349
2022-10-28 00:34:00+00:00,213.0,5.86,214.0,6.47,12.41,47.59359,-54.27349
2022-10-28 00:44:00+00:00,213.0,6.3,214.0,6.98,12.41,47.59359,-54.27349
2022-10-28 00:54:00+00:00,214.0,6.24,215.0,7.06,12.41,47.59359,-54.27349
2022-10-28 01:04:00+00:00,215.0,6.64,217.0,7.37,12.41,47.59359,-54.27349
2022-10-28 01:14:00+00:00,213.0,5.35,216.0,5.87,12.41,47.59359,-54.27349
2022-10-28 01:24:00+00:00,210.0,5.99,214.0,6.54,12.41,47.59359,-54.27349
2022-10-28 01:34:00+00:00,208.0,5.21,210.0,5.71,12.41,47.59359,-54.27349
2022-10-28 01:44:00+00:00,201.0,5.67,200.0,6.05,12.41,47.59359,-54.27349
2022-10-28 01:54:00+00:00,206.0,6.37,207.0,7.06,12.41,47.59359,-54.27349
2022-10-28 02:04:00+00:00,208.0,6.88,208.0,7.52,12.41,47.59359,-54.27349
2022-10-28 02:14:00+00:00,214.0,6.58,214.0,7.13,12.41,47.59359,-54.27349
2022-10-28 02:24:00+00:00,203.0,6.17,203.0,6.92,12.41,47.59359,-54.27349
2022-10-28 02:34:00+00:00,199.0,5.79,197.0,6.43,12.41,47.59359,-54.27349
2022-10-28 02:44:00+00:00,219.0,5.21,217.0,5.88,12.41,47.59359,-54.27349
2022-10-28 02:54:00+00:00,209.0,4.87,209.0,5.57,12.41,47.59359,-54.27349
2022-10-28 03:04:00+00:00,212.0,4.79,216.0,5.29,12.41,47.59359,-54.27349
2022-10-28 03:14:00+00:00,212.0,6.38,215.0,7.04,12.41,47.59359,-54.27349
2022-10-28 03:24:00+00:00,216.0,5.62,218.0,6.11,12.41,47.59359,-54.27349
2022-10-28 03:34:00+00:00,217.0,4.19,218.0,4.74,12.41,47.59359,-54.27349
2022-10-28 03:44:00+00:00,216.0,5.1,217.0,6.17,12.41,47.59359,-54.27349
2022-10-28 03:54:00+00:00,209.0,4.46,214.0,5.36,12.41,47.59359,-54.27349
2022-10-28 04:04:00+00:00,202.0,4.49,199.0,4.98,12.41,47.59359,-54.27349
2022-10-28 04:14:00+00:00,212.0,3.27,204.0,3.77,12.41,47.59359,-54.27349
2022-10-28 04:24:00+00:00,253.0,4.85,258.0,5.82,12.41,47.59359,-54.27349
2022-10-28 04:34:00+00:00,252.0,3.72,251.0,4.57,12.41,47.59359,-54.27349
2022-10-28 04:44:00+00:00,265.0,2.93,268.0,3.87,12.41,47.59359,-54.27349
2022-10-28 04:54:00+00:00,131.0,0.65,114.0,0.9,12.41,47.59359,-54.27349
2022-10-28 05:04:00+00:00,265.0,2.54,277.0,3.24,12.41,47.59359,-54.27349
2022-10-28 05:14:01+00:00,178.0,2.26,176.0,2.77,12.33,47.59359,-54.27349
2022-10-28 05:24:01+00:00,199.0,1.61,206.0,2.0,12.33,47.59359,-54.27349
2022-10-28 05:34:01+00:00,257.0,1.15,272.0,1.94,12.33,47.59359,-54.27349
2022-10-28 05:44:01+00:00,264.0,3.62,274.0,4.81,12.33,47.59359,-54.27349
2022-10-28 05:54:01+00:00,271.0,5.27,262.0,6.57,12.33,47.59359,-54.27349
2022-10-28 06:04:01+00:00,276.0,4.72,273.0,5.53,12.33,47.59359,-54.27349
2022-10-28 06:14:00+00:00,284.0,4.63,283.0,5.3,12.33,47.59359,-54.27349
2022-10-28 06:24:00+00:00,286.0,4.94,288.0,5.59,12.33,47.59359,-54.27349
2022-10-28 06:34:00+00:00,273.0,5.97,274.0,6.91,12.33,47.59359,-54.27349
2022-10-28 06:44:00+00:00,276.0,5.37,279.0,6.21,12.33,47.59359,-54.27349
2022-10-28 06:54:00+00:00,269.0,3.57,266.0,4.04,12.33,47.59359,-54.27349
2022-10-28 07:04:00+00:00,260.0,4.21,252.0,4.76,12.33,47.59359,-54.27349
2022-10-28 07:14:01+00:00,255.0,4.26,259.0,4.72,12.25,47.59359,-54.27349
2022-10-28 07:24:01+00:00,268.0,4.36,268.0,5.07,12.25,47.59359,-54.27349
2022-10-28 07:34:01+00:00,278.0,3.2,286.0,3.92,12.25,47.59359,-54.27349
2022-10-28 07:44:01+00:00,270.0,2.73,270.0,3.15,12.25,47.59359,-54.27349
2022-10-28 07:54:01+00:00,271.0,3.18,279.0,3.81,12.25,47.59359,-54.27349
2022-10-28 08:04:01+00:00,257.0,2.6,267.0,3.89,12.25,47.59359,-54.27349
2022-10-28 08:14:01+00:00,267.0,3.01,267.0,3.4,12.25,47.59359,-54.27349
2022-10-28 08:24:01+00:00,263.0,2.83,265.0,3.21,12.25,47.59359,-54.27349
2022-10-28 08:34:01+00:00,263.0,1.53,265.0,1.96,12.25,47.59359,-54.27349
2022-10-28 08:44:01+00:00,251.0,2.89,252.0,3.25,12.25,47.59359,-54.27349
2022-10-28 08:54:01+00:00,288.0,2.15,273.0,3.49,12.25,47.59359,-54.27349
2022-10-28 09:04:01+00:00,293.0,0.44,314.0,1.43,12.25,47.59359,-54.27349
2022-10-28 09:14:01+00:00,182.0,1.2,200.0,1.84,12.25,47.59359,-54.27349
2022-10-28 09:24:01+00:00,349.0,1.93,336.0,2.89,12.25,47.59359,-54.27349
2022-10-28 09:34:01+00:00,313.0,3.94,312.0,4.79,12.25,47.59359,-54.27349
2022-10-28 09:44:01+00:00,305.0,4.97,302.0,6.1,12.25,47.59359,-54.27349
2022-10-28 09:54:01+00:00,312.0,8.95,316.0,10.1,12.25,47.59359,-54.27349
2022-10-28 10:04:01+00:00,319.0,9.11,323.0,10.38,12.25,47.59359,-54.27349
2022-10-28 10:14:00+00:00,321.0,8.57,318.0,10.17,12.17,47.59359,-54.27349
2022-10-28 10:24:00+00:00,318.0,9.9,322.0,11.67,12.17,47.59359,-54.27349
2022-10-28 10:34:00+00:00,323.0,10.44,320.0,11.88,12.17,47.59359,-54.27349
2022-10-28 10:44:00+00:00,330.0,12.81,327.0,13.99,12.17,47.59359,-54.27349
2022-10-28 10:54:00+00:00,323.0,7.94,322.0,9.14,12.17,47.59359,-54.27349
2022-10-28 11:04:00+00:00,329.0,7.06,327.0,8.03,12.17,47.59359,-54.27349
2022-10-28 11:14:01+00:00,337.0,6.79,343.0,8.11,12.33,47.59359,-54.27349
2022-10-28 11:24:01+00:00,329.0,6.99,335.0,8.65,12.33,47.59359,-54.27349
2022-10-28 11:34:01+00:00,335.0,9.11,339.0,13.08,12.33,47.59359,-54.27349
2022-10-28 11:44:01+00:00,329.0,8.01,329.0,10.24,12.33,47.59359,-54.27349
2022-10-28 11:54:01+00:00,335.0,5.99,336.0,8.01,12.33,47.59359,-54.27349
2022-10-28 12:04:01+00:00,324.0,9.23,322.0,12.76,12.33,47.59359,-54.27349
2022-10-28 12:14:00+00:00,318.0,7.72,317.0,8.96,13.68,47.59359,-54.27349
2022-10-28 12:24:00+00:00,317.0,7.76,319.0,9.34,13.68,47.59359,-54.27349
2022-10-28 12:34:00+00:00,324.0,7.22,326.0,8.31,13.68,47.59359,-54.27349
2022-10-28 12:44:00+00:00,327.0,9.83,323.0,11.49,13.68,47.59359,-54.27349
2022-10-28 12:54:00+00:00,332.0,10.43,334.0,12.45,13.68,47.59359,-54.27349
2022-10-28 13:04:00+00:00,322.0,10.65,324.0,12.19,13.68,47.59359,-54.27349
2022-10-28 13:14:00+00:00,331.0,9.35,325.0,11.5,13.6,47.59359,-54.27349
2022-10-28 13:24:00+00:00,328.0,10.32,327.0,12.24,13.6,47.59359,-54.27349
2022-10-28 13:34:00+00:00,337.0,11.21,338.0,13.31,13.6,47.59359,-54.27349
2022-10-28 13:44:00+00:00,323.0,10.27,338.0,11.76,13.6,47.59359,-54.27349
2022-10-28 13:54:00+00:00,335.0,9.41,333.0,11.68,13.6,47.59359,-54.27349
2022-10-28 14:04:00+00:00,321.0,11.12,321.0,13.19,13.6,47.59359,-54.27349
2022-10-28 14:14:00+00:00,336.0,10.89,336.0,12.82,13.6,47.59359,-54.27349
2022-10-28 14:24:00+00:00,327.0,11.74,323.0,14.17,13.6,47.59359,-54.27349
2022-10-28 14:34:00+00:00,335.0,11.08,336.0,12.16,13.6,47.59359,-54.27349
2022-10-28 14:44:00+00:00,339.0,12.06,336.0,13.31,13.6,47.59359,-54.27349
2022-10-28 14:54:00+00:00,325.0,11.88,325.0,13.28,13.6,47.59359,-54.27349
2022-10-28 15:04:00+00:00,336.0,10.08,336.0,11.23,13.6,47.59359,-54.27349
2022-10-28 15:14:00+00:00,330.0,11.66,328.0,13.29,13.68,47.59359,-54.27349
2022-10-28 15:24:00+00:00,327.0,11.27,325.0,13.6,13.68,47.59359,-54.27349
2022-10-28 15:34:00+00:00,344.0,12.58,346.0,14.08,13.68,47.59359,-54.27349
2022-10-28 15:44:00+00:00,331.0,11.05,329.0,12.31,13.68,47.59359,-54.27349
2022-10-28 15:54:00+00:00,335.0,9.65,337.0,11.34,13.68,47.59359,-54.27349
2022-10-28 16:04:00+00:00,335.0,9.17,339.0,11.55,13.68,47.59359,-54.27349
2022-10-28 16:14:00+00:00,340.0,9.2,342.0,10.92,14.48,47.59359,-54.27349
2022-10-28 16:24:00+00:00,337.0,9.39,332.0,10.88,14.48,47.59359,-54.27349
2022-10-28 16:34:00+00:00,343.0,11.24,345.0,12.36,14.48,47.59359,-54.27349
2022-10-28 16:44:00+00:00,349.0,8.95,348.0,10.99,14.48,47.59359,-54.27349
2022-10-28 16:54:00+00:00,343.0,11.67,344.0,13.45,14.48,47.59359,-54.27349
2022-10-28 17:04:00+00:00,353.0,10.59,352.0,11.55,14.48,47.59359,-54.27349
2022-10-28 17:14:00+00:00,340.0,10.71,341.0,12.09,14.4,47.59359,-54.27349
2022-10-28 17:24:00+00:00,341.0,10.08,340.0,10.97,14.4,47.59359,-54.27349
2022-10-28 17:34:00+00:00,339.0,8.58,340.0,9.53,14.4,47.59359,-54.27349
2022-10-28 17:44:00+00:00,345.0,7.6,343.0,8.8,14.4,47.59359,-54.27349
2022-10-28 17:54:00+00:00,335.0,8.03,335.0,9.19,14.4,47.59359,-54.27349
2022-10-28 18:04:00+00:00,334.0,9.54,331.0,10.97,14.4,47.59359,-54.27349
2022-10-28 18:14:00+00:00,332.0,8.17,332.0,9.38,14.32,47.59359,-54.27349
2022-10-28 18:24:00+00:00,327.0,10.45,328.0,11.25,14.32,47.59359,-54.27349
2022-10-28 18:34:00+00:00,326.0,10.06,328.0,11.44,14.32,47.59359,-54.27349
2022-10-28 18:44:00+00:00,321.0,9.04,326.0,10.36,14.32,47.59359,-54.27349
2022-10-28 18:54:00+00:00,318.0,9.22,322.0,10.52,14.32,47.59359,-54.27349
2022-10-28 19:04:00+00:00,320.0,8.38,320.0,9.94,14.32,47.59359,-54.27349
2022-10-28 19:14:00+00:00,325.0,7.95,326.0,8.85,13.84,47.59359,-54.27349
2022-10-28 19:24:00+00:00,324.0,8.73,326.0,10.88,13.84,47.59359,-54.27349
2022-10-28 19:34:00+00:00,326.0,8.52,328.0,9.48,13.84,47.59359,-54.27349
2022-10-28 19:44:00+00:00,320.0,8.05,318.0,8.82,13.84,47.59359,-54.27349
2022-10-28 19:54:00+00:00,317.0,7.28,322.0,8.84,13.84,47.59359,-54.27349
2022-10-28 20:04:00+00:00,315.0,6.87,320.0,7.79,13.84,47.59359,-54.27349
2022-10-28 20:14:00+00:00,319.0,7.59,312.0,9.13,13.68,47.59359,-54.27349
2022-10-28 20:24:00+00:00,316.0,6.68,313.0,7.28,13.68,47.59359,-54.27349
2022-10-28 20:34:00+00:00,315.0,7.99,316.0,9.88,13.68,47.59359,-54.27349
2022-10-28 20:44:00+00:00,319.0,6.91,324.0,8.17,13.68,47.59359,-54.27349
2022-10-28 20:54:00+00:00,319.0,6.46,325.0,7.52,13.68,47.59359,-54.27349
2022-10-28 21:04:00+00:00,327.0,7.68,329.0,9.57,13.68,47.59359,-54.27349
2022-10-28 21:14:00+00:00,325.0,6.23,330.0,7.47,12.81,47.59359,-54.27349
2022-10-28 21:24:00+00:00,316.0,6.28,320.0,7.13,12.81,47.59359,-54.27349
2022-10-28 21:34:00+00:00,317.0,8.22,322.0,9.97,12.81,47.59359,-54.27349
2022-10-28 21:44:00+00:00,323.0,6.6,330.0,7.73,12.81,47.59359,-54.27349
2022-10-28 21:54:00+00:00,323.0,6.77,321.0,7.73,12.81,47.59359,-54.27349
2022-10-28 22:04:00+00:00,316.0,6.35,318.0,7.71,12.81,47.59359,-54.27349
2022-10-28 22:14:00+00:00,313.0,5.56,310.0,6.23,12.57,47.59359,-54.27349
2022-10-28 22:24:00+00:00,325.0,5.35,324.0,5.84,12.57,47.59359,-54.27349
2022-10-28 22:34:00+00:00,317.0,4.7,314.0,5.36,12.57,47.59359,-54.27349
2022-10-28 22:44:00+00:00,309.0,4.45,312.0,5.31,12.57,47.59359,-54.27349
2022-10-28 22:54:00+00:00,333.0,4.82,327.0,5.49,12.57,47.59359,-54.27349
2022-10-28 23:04:00+00:00,326.0,4.46,323.0,5.05,12.57,47.59359,-54.27349
2022-10-28 23:14:00+00:00,322.0,5.01,325.0,6.13,12.49,47.59359,-54.27349
2022-10-28 23:24:00+00:00,323.0,4.06,316.0,4.8,12.49,47.59359,-54.27349
2022-10-28 23:34:00+00:00,309.0,3.19,322.0,4.5,12.49,47.59359,-54.27349
2022-10-28 23:44:00+00:00,320.0,4.4,322.0,5.39,12.49,47.59359,-54.27349
2022-10-28 23:54:00+00:00,314.0,5.07,310.0,7.03,12.49,47.59359,-54.27349
